Hanford, WA
on Tuesday, February 26, 2013

Tuesday
Previous Day Next Day
Daily Summary
 ActualAverage (KMWH)Record (KMWH)
Temperature
Mean Temperature °F 38°F  
Max Temperature 50°F 48°F 64°F (1986)
Min Temperature 28°F 28°F 7°F (2011)
Degree Days
Heating Degree Days 26 27  
Month to date heating degree days 779  
Since 1 July heating degree days 4453  
Moisture
Dew Point 21°F   
Average Humidity 48    
Maximum Humidity 73    
Minimum Humidity 30    
Precipitation
Precipitation 0.00 in 0.03 in 0.26 in (1980)
Month to date precipitation 0.75  
Year to date precipitation 1.89  
Wind
Wind Speed 9 mph   
Max Wind Speed 17 mph   
Max Gust Speed mph   
Visibility 15 miles   
Events     

Key: T is trace of precipitation, MM is missing value
Source: NWS Daily Summary
Time(PST)TemperatureDew PointHumidity Pressure Visibility Wind DirectionWind SpeedGust SpeedPrecipitationEvents Conditions
12:50 AM 35.4°F 20.1°F 54% 30.22 in 15.0 miles WSW 11.5 mph - N/A   Clear
1:50 AM 32.4°F 19.9°F 60% 30.24 in 15.0 miles SW 8.1 mph - N/A   Partly Cloudy
2:50 AM 32.4°F 19.8°F 60% 30.26 in 15.0 miles SW 10.4 mph - N/A   Scattered Clouds
3:50 AM 34.2°F 19.9°F 56% 30.25 in 15.0 miles WSW 9.2 mph - N/A   Mostly Cloudy
4:50 AM 35.4°F 19.6°F 53% 30.27 in 15.0 miles West 10.4 mph - N/A   Partly Cloudy
5:50 AM 32.2°F 19.2°F 59% 30.28 in 15.0 miles WSW 11.5 mph - N/A   Scattered Clouds
6:50 AM 28.2°F 18.7°F 67% 30.30 in 15.0 miles SW 5.8 mph - N/A   Scattered Clouds
7:50 AM 34.0°F 20.3°F 57% 30.32 in 15.0 miles SSW 8.1 mph - N/A   Scattered Clouds
8:50 AM 41.5°F 21.4°F 45% 30.32 in 15.0 miles WSW 4.6 mph - N/A   Partly Cloudy
9:50 AM 43.7°F 21.4°F 41% 30.33 in 15.0 miles North 3.5 mph - N/A   Partly Cloudy
10:50 AM 47.1°F 20.8°F 35% 30.33 in 15.0 miles ESE 4.6 mph - N/A   Partly Cloudy
11:50 AM 49.3°F 19.2°F 30% 30.32 in 15.0 miles South 8.1 mph - N/A   Scattered Clouds
12:50 PM 50.5°F 21.0°F 31% 30.31 in 15.0 miles ESE 10.4 mph - N/A   Mostly Cloudy
1:50 PM 49.5°F 20.5°F 32% 30.30 in 15.0 miles ESE 17.3 mph - N/A   Mostly Cloudy
2:50 PM 49.5°F 21.7°F 34% 30.29 in 15.0 miles SE 11.5 mph - N/A   Overcast
3:50 PM 48.7°F 19.0°F 31% 30.25 in 15.0 miles SSE 11.5 mph - N/A   Overcast
4:50 PM 48.0°F 23.7°F 39% 30.24 in 15.0 miles SSE 9.2 mph - N/A   Overcast
5:50 PM 44.4°F 23.2°F 43% 30.24 in 15.0 miles SSE 5.8 mph - N/A   Mostly Cloudy
6:50 PM 43.0°F 25.3°F 50% 30.22 in 15.0 miles SE 10.4 mph - N/A   Mostly Cloudy
10:50 PM 35.1°F 23.7°F 63% 30.22 in 15.0 miles NW 3.5 mph - N/A   Overcast
11:50 PM 32.4°F 24.4°F 73% 30.22 in 15.0 miles ENE 4.6 mph - N/A   Mostly Cloudy
Moon Phase
Feb. 26 Mar. 04 Mar. 11 Mar. 19 Mar. 27
Sunrise:06:42 AM (PST) Moon Rise:07:10 PM (PST)2/26
Sunset:05:40 PM (PST) Moon Set:06:41 AM (PST)2/26

Copyright © 2014 The Weather Underground, Inc.